Time,TemperatureF,DewpointF,PressureIn,WindDirection,WindDirectionDegrees,WindSpeedMPH,WindSpeedGustMPH,Humidity,HourlyPrecipIn,Conditions,Clouds,dailyrainin,SoftwareType,DateUTC
2013-01-11 00:02:00,35.0,33.0,30.05,West,267,7.0,13.0,91,-99.99,,,-99.99,,2013-01-11 08:02:00,
2013-01-11 00:12:00,35.0,33.0,30.06,West,281,8.0,13.0,93,-99.99,,,-99.99,,2013-01-11 08:12:00,
2013-01-11 00:22:00,34.0,33.0,30.06,West,269,5.0,8.0,94,-99.99,,,-99.99,,2013-01-11 08:22:00,
2013-01-11 00:32:00,34.0,33.0,30.06,West,271,9.0,16.0,95,-99.99,,,-99.99,,2013-01-11 08:32:00,
2013-01-11 00:42:00,35.0,34.0,30.05,West,274,8.0,14.0,95,-99.99,,,-99.99,,2013-01-11 08:42:00,
2013-01-11 00:52:00,35.0,33.0,30.06,WNW,290,11.0,17.0,94,-99.99,,,-99.99,,2013-01-11 08:52:00,
2013-01-11 01:02:00,35.0,33.0,30.06,WNW,289,10.0,18.0,94,-99.99,,,-99.99,,2013-01-11 09:02:00,
2013-01-11 01:12:00,34.0,33.0,30.06,WNW,291,10.0,15.0,93,-99.99,,,-99.99,,2013-01-11 09:12:00,
2013-01-11 01:22:00,35.0,33.0,30.06,WNW,290,9.0,14.0,93,-99.99,,,-99.99,,2013-01-11 09:22:00,
2013-01-11 01:32:00,34.0,32.0,30.06,WNW,284,9.0,15.0,93,-99.99,,,-99.99,,2013-01-11 09:32:00,
2013-01-11 01:42:00,34.0,32.0,30.06,WSW,252,6.0,11.0,93,-99.99,,,-99.99,,2013-01-11 09:42:00,
2013-01-11 01:52:00,34.0,32.0,30.06,WSW,247,5.0,7.0,93,-99.99,,,-99.99,,2013-01-11 09:52:00,
2013-01-11 02:02:00,33.0,32.0,30.06,SW,221,3.0,4.0,93,-99.99,,,-99.99,,2013-01-11 10:02:00,
2013-01-11 02:12:00,34.0,32.0,30.06,SSW,194,3.0,6.0,93,-99.99,,,-99.99,,2013-01-11 10:12:00,
2013-01-11 02:22:00,33.0,31.0,30.06,SW,215,3.0,7.0,93,-99.99,,,-99.99,,2013-01-11 10:22:00,
2013-01-11 02:32:00,33.0,31.0,30.06,SSW,204,3.0,6.0,92,-99.99,,,-99.99,,2013-01-11 10:32:00,
2013-01-11 02:42:00,32.0,30.0,30.07,SSW,192,2.0,6.0,93,-99.99,,,-99.99,,2013-01-11 10:42:00,
2013-01-11 02:52:00,31.0,30.0,30.07,ESE,103,4.0,5.0,94,-99.99,,,-99.99,,2013-01-11 10:52:00,
2013-01-11 03:02:00,31.0,30.0,30.08,SE,127,3.0,8.0,98,-99.99,,,-99.99,,2013-01-11 11:02:00,
2013-01-11 03:12:00,30.0,30.0,30.08,South,170,2.0,3.0,97,-99.99,,,-99.99,,2013-01-11 11:12:00,
2013-01-11 03:22:00,30.0,30.0,30.08,South,171,2.0,4.0,97,-99.99,,,-99.99,,2013-01-11 11:22:00,
2013-01-11 03:32:00,30.0,29.0,30.08,South,173,2.0,3.0,97,-99.99,,,-99.99,,2013-01-11 11:32:00,
2013-01-11 03:42:00,30.0,30.0,30.08,SW,216,2.0,4.0,97,-99.99,,,-99.99,,2013-01-11 11:42:00,
2013-01-11 03:52:00,31.0,30.0,30.08,West,264,6.0,12.0,98,-99.99,,,-99.99,,2013-01-11 11:52:00,
2013-01-11 04:02:00,31.0,30.0,30.08,West,264,6.0,12.0,98,-99.99,,,-99.99,,2013-01-11 12:02:00,
2013-01-11 04:12:00,33.0,29.0,30.07,WSW,258,6.0,11.0,85,-99.99,,,-99.99,,2013-01-11 12:12:00,
2013-01-11 04:22:00,33.0,29.0,30.07,WSW,251,4.0,6.0,83,-99.99,,,-99.99,,2013-01-11 12:22:00,
2013-01-11 04:32:00,33.0,27.0,30.07,WSW,258,1.0,3.0,78,-99.99,,,-99.99,,2013-01-11 12:32:00,
2013-01-11 04:42:00,34.0,29.0,30.07,WSW,253,2.0,5.0,81,-99.99,,,-99.99,,2013-01-11 12:42:00,
2013-01-11 04:52:00,33.0,28.0,30.07,SSE,164,2.0,2.0,83,-99.99,,,-99.99,,2013-01-11 12:52:00,
2013-01-11 05:02:00,33.0,28.0,30.07,SSE,164,2.0,2.0,83,-99.99,,,-99.99,,2013-01-11 13:02:00,
2013-01-11 05:12:00,32.0,30.0,30.08,SSW,210,2.0,6.0,89,-99.99,,,-99.99,,2013-01-11 13:12:00,
2013-01-11 05:22:00,32.0,30.0,30.08,South,169,1.0,3.0,91,-99.99,,,-99.99,,2013-01-11 13:22:00,
2013-01-11 05:32:00,33.0,31.0,30.08,West,272,3.0,6.0,94,-99.99,,,-99.99,,2013-01-11 13:32:00,
2013-01-11 05:42:00,33.0,32.0,30.08,WSW,257,7.0,14.0,93,-99.99,,,-99.99,,2013-01-11 13:42:00,
2013-01-11 05:52:00,34.0,31.0,30.08,West,263,8.0,13.0,90,-99.99,,,-99.99,,2013-01-11 13:52:00,
2013-01-11 06:03:00,34.0,29.0,30.09,West,273,7.0,12.0,84,-99.99,,,-99.99,,2013-01-11 14:03:00,
2013-01-11 06:12:00,34.0,29.0,30.09,West,281,8.0,14.0,83,-99.99,,,-99.99,,2013-01-11 14:12:00,
2013-01-11 06:22:00,34.0,31.0,30.10,West,275,8.0,16.0,89,-99.99,,,-99.99,,2013-01-11 14:22:00,
2013-01-11 06:33:00,33.0,32.0,30.11,WNW,291,7.0,12.0,93,-99.99,,,-99.99,,2013-01-11 14:33:00,
2013-01-11 06:42:00,34.0,32.0,30.11,WNW,289,7.0,14.0,93,-99.99,,,-99.99,,2013-01-11 14:42:00,
2013-01-11 06:53:00,34.0,32.0,30.12,WNW,294,9.0,14.0,93,-99.99,,,-99.99,,2013-01-11 14:53:00,
2013-01-11 07:03:00,34.0,31.0,30.12,WNW,290,8.0,13.0,91,-99.99,,,-99.99,,2013-01-11 15:03:00,
2013-01-11 07:12:00,33.0,31.0,30.13,WNW,293,5.0,9.0,91,-99.99,,,-99.99,,2013-01-11 15:12:00,
2013-01-11 07:22:00,33.0,31.0,30.14,ENE,72,1.0,2.0,91,-99.99,,,-99.99,,2013-01-11 15:22:00,
2013-01-11 07:32:00,33.0,31.0,30.14,NW,309,3.0,7.0,92,-99.99,,,-99.99,,2013-01-11 15:32:00,
2013-01-11 07:42:00,33.0,31.0,30.15,NNW,329,4.0,8.0,93,-99.99,,,-99.99,,2013-01-11 15:42:00,
2013-01-11 07:52:00,33.0,32.0,30.15,NNW,339,4.0,7.0,95,-99.99,,,-99.99,,2013-01-11 15:52:00,
2013-01-11 08:02:00,33.0,32.0,30.15,NNW,339,4.0,7.0,95,-99.99,,,-99.99,,2013-01-11 16:02:00,
2013-01-11 08:12:00,33.0,31.0,30.16,NNW,341,5.0,8.0,94,-99.99,,,-99.99,,2013-01-11 16:12:00,
2013-01-11 08:22:00,32.0,31.0,30.17,NNW,341,4.0,7.0,95,-99.99,,,-99.99,,2013-01-11 16:22:00,
2013-01-11 08:32:00,32.0,31.0,30.18,NW,322,3.0,6.0,96,-99.99,,,-99.99,,2013-01-11 16:32:00,
2013-01-11 08:42:00,32.0,32.0,30.18,WNW,285,6.0,9.0,98,-99.99,,,-99.99,,2013-01-11 16:42:00,
2013-01-11 08:52:00,32.0,32.0,30.19,NW,305,3.0,5.0,98,-99.99,,,-99.99,,2013-01-11 16:52:00,
2013-01-11 09:03:00,32.0,31.0,30.19,NNW,347,3.0,7.0,96,-99.99,,,-99.99,,2013-01-11 17:03:00,
2013-01-11 09:12:00,32.0,31.0,30.20,North,352,2.0,4.0,93,-99.99,,,-99.99,,2013-01-11 17:12:00,
2013-01-11 09:22:00,32.0,30.0,30.20,NNW,334,3.0,5.0,91,-99.99,,,-99.99,,2013-01-11 17:22:00,
2013-01-11 09:33:00,33.0,30.0,30.21,NW,317,1.0,3.0,90,-99.99,,,-99.99,,2013-01-11 17:33:00,
2013-01-11 09:43:00,33.0,30.0,30.22,NE,48,1.0,2.0,91,-99.99,,,-99.99,,2013-01-11 17:43:00,
2013-01-11 09:53:00,33.0,30.0,30.22,ENE,71,2.0,3.0,89,-99.99,,,-99.99,,2013-01-11 17:53:00,
2013-01-11 10:03:00,33.0,29.0,30.23,East,87,1.0,2.0,85,-99.99,,,-99.99,,2013-01-11 18:03:00,
2013-01-11 10:12:00,33.0,27.0,30.23,NNE,29,0.0,1.0,80,-99.99,,,-99.99,,2013-01-11 18:12:00,
2013-01-11 10:23:00,33.0,28.0,30.23,NW,321,0.0,1.0,82,-99.99,,,-99.99,,2013-01-11 18:23:00,
2013-01-11 10:32:00,34.0,29.0,30.24,ENE,73,1.0,2.0,81,-99.99,,,-99.99,,2013-01-11 18:32:00,
2013-01-11 10:43:00,34.0,28.0,30.24,ENE,76,2.0,2.0,77,-99.99,,,-99.99,,2013-01-11 18:43:00,
2013-01-11 10:53:00,34.0,28.0,30.24,East,93,2.0,2.0,76,-99.99,,,-99.99,,2013-01-11 18:53:00,
2013-01-11 11:02:00,36.0,28.0,30.25,East,81,2.0,2.0,73,-99.99,,,-99.99,,2013-01-11 19:02:00,
2013-01-11 11:12:00,36.0,28.0,30.25,ESE,111,2.0,2.0,71,-99.99,,,-99.99,,2013-01-11 19:12:00,
2013-01-11 11:22:00,38.0,27.0,30.25,SE,124,1.0,2.0,64,-99.99,,,-99.99,,2013-01-11 19:22:00,
2013-01-11 11:32:00,39.0,27.0,30.25,ESE,116,1.0,2.0,62,-99.99,,,-99.99,,2013-01-11 19:32:00,
2013-01-11 11:42:00,38.0,27.0,30.25,SE,129,2.0,4.0,64,-99.99,,,-99.99,,2013-01-11 19:42:00,
2013-01-11 11:52:00,38.0,28.0,30.24,SE,138,1.0,4.0,66,-99.99,,,-99.99,,2013-01-11 19:52:00,
2013-01-11 12:02:00,37.0,28.0,30.24,SSE,147,3.0,4.0,68,-99.99,,,-99.99,,2013-01-11 20:02:00,
2013-01-11 12:12:00,36.0,26.0,30.24,SSW,204,1.0,5.0,66,-99.99,,,-99.99,,2013-01-11 20:12:00,
2013-01-11 12:22:00,36.0,27.0,30.24,NNE,30,1.0,1.0,68,-99.99,,,-99.99,,2013-01-11 20:22:00,
2013-01-11 12:32:00,37.0,26.0,30.24,SW,233,2.0,3.0,63,-99.99,,,-99.99,,2013-01-11 20:32:00,
2013-01-11 12:43:00,38.0,26.0,30.24,WNW,282,1.0,1.0,61,-99.99,,,-99.99,,2013-01-11 20:43:00,
2013-01-11 12:52:00,40.0,27.0,30.24,NW,314,1.0,4.0,61,-99.99,,,-99.99,,2013-01-11 20:52:00,
2013-01-11 13:03:00,41.0,26.0,30.23,ESE,120,1.0,2.0,54,-99.99,,,-99.99,,2013-01-11 21:03:00,
2013-01-11 13:12:00,40.0,26.0,30.23,WNW,285,4.0,5.0,57,-99.99,,,-99.99,,2013-01-11 21:12:00,
2013-01-11 13:22:00,40.0,25.0,30.24,South,181,1.0,2.0,53,-99.99,,,-99.99,,2013-01-11 21:22:00,
2013-01-11 13:32:00,42.0,23.0,30.23,NNW,330,1.0,3.0,47,-99.99,,,-99.99,,2013-01-11 21:32:00,
2013-01-11 13:42:00,42.0,24.0,30.23,WNW,295,2.0,4.0,49,-99.99,,,-99.99,,2013-01-11 21:42:00,
2013-01-11 13:52:00,41.0,25.0,30.23,WNW,293,4.0,7.0,52,-99.99,,,-99.99,,2013-01-11 21:52:00,
2013-01-11 14:02:00,40.0,22.0,30.24,West,270,2.0,6.0,48,-99.99,,,-99.99,,2013-01-11 22:02:00,
2013-01-11 14:12:00,41.0,22.0,30.24,WNW,303,3.0,5.0,45,-99.99,,,-99.99,,2013-01-11 22:12:00,
2013-01-11 14:22:00,42.0,23.0,30.24,North,356,1.0,4.0,45,-99.99,,,-99.99,,2013-01-11 22:22:00,
2013-01-11 14:33:00,42.0,22.0,30.24,West,263,2.0,3.0,43,-99.99,,,-99.99,,2013-01-11 22:33:00,
2013-01-11 14:42:00,42.0,21.0,30.25,WNW,282,2.0,4.0,43,-99.99,,,-99.99,,2013-01-11 22:42:00,
2013-01-11 14:52:00,42.0,21.0,30.25,NW,326,4.0,7.0,43,-99.99,,,-99.99,,2013-01-11 22:52:00,
2013-01-11 15:02:00,42.0,21.0,30.25,WNW,285,5.0,7.0,41,-99.99,,,-99.99,,2013-01-11 23:02:00,
2013-01-11 15:12:00,41.0,20.0,30.25,NW,322,2.0,6.0,42,-99.99,,,-99.99,,2013-01-11 23:12:00,
2013-01-11 15:22:00,41.0,20.0,30.25,WNW,298,3.0,5.0,41,-99.99,,,-99.99,,2013-01-11 23:22:00,
2013-01-11 15:32:00,41.0,19.0,30.25,NW,319,4.0,6.0,40,-99.99,,,-99.99,,2013-01-11 23:32:00,
2013-01-11 15:42:00,40.0,19.0,30.25,WNW,284,4.0,6.0,41,-99.99,,,-99.99,,2013-01-11 23:42:00,
2013-01-11 15:53:00,40.0,21.0,30.26,WNW,286,4.0,6.0,46,-99.99,,,-99.99,,2013-01-11 23:53:00,
2013-01-11 16:02:00,39.0,22.0,30.26,WNW,291,6.0,7.0,48,-99.99,,,-99.99,,2013-01-12 00:02:00,
2013-01-11 16:12:00,39.0,22.0,30.26,West,278,4.0,6.0,49,-99.99,,,-99.99,,2013-01-12 00:12:00,
2013-01-11 16:22:00,39.0,23.0,30.26,WNW,291,5.0,7.0,53,-99.99,,,-99.99,,2013-01-12 00:22:00,
2013-01-11 16:32:00,38.0,23.0,30.26,WNW,285,4.0,6.0,54,-99.99,,,-99.99,,2013-01-12 00:32:00,
2013-01-11 16:42:00,38.0,23.0,30.26,West,268,3.0,4.0,54,-99.99,,,-99.99,,2013-01-12 00:42:00,
2013-01-11 16:52:00,37.0,23.0,30.27,WNW,286,4.0,7.0,55,-99.99,,,-99.99,,2013-01-12 00:52:00,
2013-01-11 17:02:00,36.0,23.0,30.27,West,276,4.0,5.0,57,-99.99,,,-99.99,,2013-01-12 01:02:00,
2013-01-11 17:12:00,35.0,23.0,30.27,WNW,282,3.0,4.0,61,-99.99,,,-99.99,,2013-01-12 01:12:00,
2013-01-11 17:22:00,35.0,24.0,30.27,West,279,4.0,6.0,64,-99.99,,,-99.99,,2013-01-12 01:22:00,
2013-01-11 17:32:00,33.0,24.0,30.27,South,184,1.0,2.0,67,-99.99,,,-99.99,,2013-01-12 01:32:00,
2013-01-11 17:42:00,33.0,24.0,30.27,South,184,1.0,2.0,67,-99.99,,,-99.99,,2013-01-12 01:42:00,
2013-01-11 17:52:00,33.0,24.0,30.27,South,170,2.0,4.0,70,-99.99,,,-99.99,,2013-01-12 01:52:00,
2013-01-11 18:02:00,32.0,23.0,30.27,South,175,3.0,6.0,70,-99.99,,,-99.99,,2013-01-12 02:02:00,
2013-01-11 18:12:00,32.0,23.0,30.28,SSE,159,2.0,3.0,69,-99.99,,,-99.99,,2013-01-12 02:12:00,
2013-01-11 18:22:00,31.0,22.0,30.28,SSW,212,1.0,2.0,67,-99.99,,,-99.99,,2013-01-12 02:22:00,
2013-01-11 18:32:00,30.0,22.0,30.28,WSW,249,0.0,3.0,69,-99.99,,,-99.99,,2013-01-12 02:32:00,
2013-01-11 18:42:00,30.0,23.0,30.29,SE,141,1.0,3.0,73,-99.99,,,-99.99,,2013-01-12 02:42:00,
2013-01-11 18:52:00,29.0,22.0,30.29,SE,142,1.0,1.0,75,-99.99,,,-99.99,,2013-01-12 02:52:00,
2013-01-11 19:02:00,29.0,23.0,30.29,South,176,1.0,2.0,78,-99.99,,,-99.99,,2013-01-12 03:02:00,
2013-01-11 19:12:00,28.0,22.0,30.30,South,188,1.0,3.0,78,-99.99,,,-99.99,,2013-01-12 03:12:00,
2013-01-11 19:22:00,28.0,23.0,30.30,South,191,2.0,2.0,82,-99.99,,,-99.99,,2013-01-12 03:22:00,
2013-01-11 19:32:00,28.0,23.0,30.30,South,171,2.0,3.0,82,-99.99,,,-99.99,,2013-01-12 03:32:00,
2013-01-11 19:42:00,28.0,23.0,30.30,South,178,3.0,3.0,81,-99.99,,,-99.99,,2013-01-12 03:42:00,
2013-01-11 19:52:00,28.0,24.0,30.30,SE,133,2.0,2.0,84,-99.99,,,-99.99,,2013-01-12 03:52:00,
2013-01-11 20:02:00,28.0,24.0,30.30,SE,133,2.0,2.0,84,-99.99,,,-99.99,,2013-01-12 04:02:00,
2013-01-11 20:12:00,28.0,24.0,30.30,SE,128,2.0,3.0,84,-99.99,,,-99.99,,2013-01-12 04:12:00,
2013-01-11 20:22:00,28.0,24.0,30.30,SE,141,1.0,2.0,85,-99.99,,,-99.99,,2013-01-12 04:22:00,
2013-01-11 20:32:00,27.0,24.0,30.31,SSE,168,1.0,1.0,89,-99.99,,,-99.99,,2013-01-12 04:32:00,
2013-01-11 20:42:00,27.0,24.0,30.31,SSE,168,1.0,1.0,89,-99.99,,,-99.99,,2013-01-12 04:42:00,
2013-01-11 20:52:00,26.0,24.0,30.31,SE,135,2.0,3.0,90,-99.99,,,-99.99,,2013-01-12 04:52:00,
2013-01-11 21:03:00,26.0,24.0,30.31,SW,223,0.0,1.0,94,-99.99,,,-99.99,,2013-01-12 05:03:00,
2013-01-11 21:12:00,26.0,25.0,30.31,East,97,1.0,1.0,95,-99.99,,,-99.99,,2013-01-12 05:12:00,
2013-01-11 21:22:00,26.0,25.0,30.30,East,97,1.0,1.0,95,-99.99,,,-99.99,,2013-01-12 05:22:00,
2013-01-11 21:32:00,25.0,24.0,30.31,SSE,155,1.0,1.0,94,-99.99,,,-99.99,,2013-01-12 05:32:00,
2013-01-11 21:42:00,26.0,25.0,30.31,SSW,200,1.0,1.0,97,-99.99,,,-99.99,,2013-01-12 05:42:00,
2013-01-11 21:52:00,25.0,25.0,30.31,SSE,156,1.0,2.0,98,-99.99,,,-99.99,,2013-01-12 05:52:00,
2013-01-11 22:02:00,26.0,26.0,30.31,SE,145,1.0,2.0,99,-99.99,,,-99.99,,2013-01-12 06:02:00,
2013-01-11 22:12:00,25.0,25.0,30.31,SE,142,1.0,1.0,99,-99.99,,,-99.99,,2013-01-12 06:12:00,
2013-01-11 22:22:00,25.0,24.0,30.31,South,181,1.0,1.0,96,-99.99,,,-99.99,,2013-01-12 06:22:00,
2013-01-11 22:32:00,25.0,25.0,30.31,WSW,254,1.0,1.0,100,-99.99,,,-99.99,,2013-01-12 06:32:00,
2013-01-11 22:42:00,25.0,25.0,30.31,WSW,254,1.0,1.0,100,-99.99,,,-99.99,,2013-01-12 06:42:00,
2013-01-11 22:52:00,24.0,24.0,30.31,West,262,1.0,1.0,100,-99.99,,,-99.99,,2013-01-12 06:52:00,
2013-01-11 23:02:00,25.0,25.0,30.31,SW,217,2.0,2.0,100,-99.99,,,-99.99,,2013-01-12 07:02:00,
2013-01-11 23:12:00,25.0,25.0,30.31,SE,136,2.0,3.0,100,-99.99,,,-99.99,,2013-01-12 07:12:00,
2013-01-11 23:22:00,24.0,24.0,30.31,SSE,160,2.0,2.0,100,-99.99,,,-99.99,,2013-01-12 07:22:00,
2013-01-11 23:32:00,24.0,24.0,30.31,South,182,1.0,1.0,100,-99.99,,,-99.99,,2013-01-12 07:32:00,
2013-01-11 23:42:00,24.0,24.0,30.31,South,187,1.0,1.0,100,-99.99,,,-99.99,,2013-01-12 07:42:00,
2013-01-11 23:52:00,24.0,24.0,30.31,South,190,1.0,1.0,100,-99.99,,,-99.99,,2013-01-12 07:52:00,